Location: Estes Par
(40.3770°N, 10.0000°W)
Time: 17:01:59
(UTC-06:00)

Amateur Radio Satellites - All Passes

Search period start: 22 October 2017 16:31
Search period end: 23 October 2017 16:31
Location: Estes Par, 40.3770°N, 10.0000°W

Satellite Date Start Highest point End Downlink Frequencies (MHz)
Time Altitude Azimuth
DELFI C3 22 Oct 16:40:20 16:42:14 13° 268° (W) 16:44:10 145.870
UNISAT 6 22 Oct 16:41:52 16:46:28 82° 284° (WNW) 16:50:56 437.425
EO-88 22 Oct 16:46:14 16:48:50 18° 266° (W) 16:51:27 145.990 - 145.960
AIST 2D 22 Oct 16:52:45 16:53:27 10° 91° (E) 16:54:08 435.315
TIGRISAT 22 Oct 16:56:01 17:00:33 63° 286° (WNW) 17:04:57 435.000
AO-85 22 Oct 16:57:14 17:00:26 18° 249° (WSW) 17:03:47 145.980
PRISM 22 Oct 17:00:44 17:04:51 66° 102° (ESE) 17:08:57 437.425
YUBILEINY 22 Oct 17:03:30 17:06:06 12° 287° (WNW) 17:08:43 435.215
FO-29 22 Oct 17:07:59 17:13:33 26° 296° (WNW) 17:19:31 435.910
LO-87 22 Oct 17:26:26 17:29:53 47° 261° (W) 17:33:24 145.935 - 145.965
RS-15 22 Oct 17:29:46 17:41:02 46° 108° (ESE) 17:52:21 29.354- 29.394
QB50P2 22 Oct 17:34:23 17:37:01 16° 92° (E) 17:39:38 145.880/145.840
NANOSAT C BR1 22 Oct 17:35:33 17:37:28 13° 91° (E) 17:39:22 145.865
DUCHIFAT 1 22 Oct 17:44:30 17:46:46 14° 92° (E) 17:49:01 145.980
VELOX 1 22 Oct 17:44:36 17:48:12 26° 68° (ENE) 17:51:50 145.980
ESTCUBE 1 22 Oct 18:06:11 18:10:08 31° 264° (W) 18:14:06 437.505/2401.250
SPROUT 22 Oct 18:15:07 18:19:23 82° 78° (ENE) 18:23:42 437.525
AIST 2D 22 Oct 18:23:34 18:26:48 39° 287° (WNW) 18:30:03 435.315
PRISM 22 Oct 18:38:29 18:39:33 11° 298° (WNW) 18:40:35 437.425
DX 1 22 Oct 18:42:31 18:46:08 27° 68° (ENE) 18:49:46 434.975-435.025
EO-79 22 Oct 18:42:46 18:47:01 88° 94° (E) 18:51:15 145.935-145.965
POLYITAN 1 22 Oct 18:48:16 18:52:32 80° 282° (WNW) 18:56:44 437.675
UKube-1 22 Oct 19:01:01 19:04:36 27° 68° (ENE) 19:08:13 .
50 SAT 22 Oct 19:03:54 19:07:02 50° 75° (ENE) 19:10:13 437.505
QB50P2 22 Oct 19:08:58 19:12:59 41° 288° (WNW) 19:16:57 145.880/145.840
NANOSAT C BR1 22 Oct 19:09:21 19:13:28 51° 287° (WNW) 19:17:32 145.865
NO-84 22 Oct 19:10:22 19:13:10 17° 124° (ESE) 19:15:59 435.350 FM
BUGSAT 1 22 Oct 19:15:51 19:19:48 38° 98° (E) 19:23:40 437.445
DUCHIFAT 1 22 Oct 19:18:37 19:22:40 46° 287° (WNW) 19:26:41 145.980
VELOX 1 22 Oct 19:20:49 19:24:32 27° 264° (W) 19:28:18 145.980
Gurwin Techsat 1B 22 Oct 19:32:41 19:36:40 21° 93° (E) 19:40:37 435.225
RS-15 22 Oct 19:41:10 19:53:16 59° 310° (NW) 20:05:21 29.354- 29.394
BEESAT 22 Oct 19:48:49 19:51:02 13° 61° (ENE) 19:53:16 436.000
M-CUBED/EXP-1 PRIME 22 Oct 19:51:58 19:54:55 22° 102° (ESE) 19:58:00 437.505
MOZHAYETS 4 22 Oct 20:15:57 20:19:44 25° 68° (ENE) 20:23:31
Oscar 19 22 Oct 20:18:37 20:23:45 83° 104° (ESE) 20:28:52 437.125/150
DX 1 22 Oct 20:18:38 20:22:14 26° 264° (W) 20:25:52 434.975-435.025
AO-7 22 Oct 20:21:49 20:22:29 10° 86° (E) 20:23:08 .
UKube-1 22 Oct 20:36:59 20:40:33 25° 264° (W) 20:44:09 .
NO-84 22 Oct 20:45:55 20:50:11 67° 319° (NW) 20:54:25 435.350 FM
BUGSAT 1 22 Oct 20:51:59 20:54:49 18° 294° (WNW) 20:57:38 437.445
ITAMSAT 1 22 Oct 21:00:00 21:01:33 11° 89° (E) 21:03:07 435.822/435.867
ITUPSAT 1 22 Oct 21:09:44 21:14:32 82° 74° (ENE) 21:19:21 437.325
Gurwin Techsat 1B 22 Oct 21:11:44 21:16:49 47° 289° (WNW) 21:21:53 435.225
BEESAT 22 Oct 21:23:26 21:28:11 71° 258° (WSW) 21:32:59 436.000
M-CUBED/EXP-1 PRIME 22 Oct 21:26:17 21:29:16 24° 294° (WNW) 21:32:25 437.505
MOZHAYETS 4 22 Oct 21:52:38 21:56:44 31° 264° (W) 22:00:52
RS-15 22 Oct 21:59:40 22:09:12 25° 340° (NNW) 22:18:37 29.354- 29.394
Oscar 19 22 Oct 22:00:13 22:02:21 13° 300° (WNW) 22:04:28 437.125/150
AO-7 22 Oct 22:08:26 22:16:42 65° 105° (ESE) 22:24:56 .
CUBESAT XI-V 22 Oct 22:10:27 22:15:05 87° 75° (ENE) 22:19:42 437.345
NO-84 22 Oct 22:25:21 22:28:15 17° 338° (NNW) 22:31:07 435.350 FM
O/OREOS (USA 219) 22 Oct 22:32:32 22:33:43 11° 50° (NE) 22:34:55 437.305
ITAMSAT 1 22 Oct 22:36:22 22:41:37 82° 286° (WNW) 22:46:50 435.822/435.867
KKS-1 22 Oct 22:58:52 23:03:16 84° 76° (ENE) 23:07:44 437.445
STARS 22 Oct 23:23:39 23:27:57 62° 74° (ENE) 23:32:19 437.465
DOVE 4 22 Oct 23:52:19 23:57:24 84° 103° (ESE) 00:02:40 437.250
AO-7 23 Oct 00:02:03 00:08:52 30° 303° (WNW) 00:15:44 .
NO-84 23 Oct 00:06:31 00:07:06 10° 359° (N) 00:07:41 435.350 FM
SO-50 23 Oct 00:08:11 00:12:37 70° 119° (ESE) 00:17:04 436.795
KAITUO 1B 23 Oct 00:08:20 00:10:50 17° 94° (E) 00:13:19 145.475/437.950
O/OREOS (USA 219) 23 Oct 00:09:12 00:13:50 89° 249° (WSW) 00:18:23 437.305
STRAND 1 23 Oct 00:10:16 00:13:57 21° 64° (ENE) 00:17:41 437.568
XW-2F 23 Oct 00:14:33 00:17:45 27° 96° (E) 00:20:55 145.980 - 146.000
NUDT-PHONESAT 23 Oct 00:17:25 00:20:15 21° 95° (E) 00:23:04 437.300
RS-15 23 Oct 00:18:24 00:27:37 24° 17° (NNE) 00:36:32 29.354- 29.394
ITAMSAT 1 23 Oct 00:18:54 00:20:12 11° 302° (WNW) 00:21:30 435.822/435.867
LilacSat-2 23 Oct 00:25:37 00:29:13 43° 99° (E) 00:32:48 437.200
XW-2D 23 Oct 00:28:59 00:32:35 46° 99° (E) 00:36:10 145.860 - 145.880
PCSat 23 Oct 00:32:10 00:35:37 17° 105° (ESE) 00:39:05 145.827
XW-2B 23 Oct 00:42:27 00:46:10 67° 100° (E) 00:49:52 145.730 - 145.750
HO-68 23 Oct 00:47:06 00:52:48 25° 94° (E) 00:58:27 435.675
STARS 23 Oct 01:03:15 01:04:41 11° 270° (W) 01:06:07 437.465
CUTE-I 23 Oct 01:05:39 01:11:02 82° 102° (ESE) 01:16:25 437.470
XW-2C 23 Oct 01:05:57 01:09:36 57° 285° (WNW) 01:13:15 145.795 - 145.815
CUBEBUG 2 23 Oct 01:19:01 01:22:33 22° 93° (E) 01:25:59 437.445
CUTE 1.7 + AOD 2 23 Oct 01:23:54 01:27:52 40° 98° (E) 01:31:49 437.475
SEEDS 23 Oct 01:25:38 01:29:07 25° 95° (E) 01:32:35 437.485
DOVE 4 23 Oct 01:32:16 01:34:25 13° 298° (WNW) 01:36:35 437.250
FO-29 23 Oct 01:36:10 01:40:10 22° 62° (ENE) 01:44:25 435.910
AAUSAT CUBESAT 2 23 Oct 01:41:15 01:43:53 16° 93° (E) 01:46:32 437.432
KAITUO 1B 23 Oct 01:41:40 01:44:50 28° 289° (WNW) 01:47:59 145.475/437.950
NO-84 23 Oct 01:43:26 01:45:59 16° 20° (NNE) 01:48:24 435.350 FM
ISS 23 Oct 01:46:24 01:47:07 11° 128° (SE) 01:47:49 437.550
STRAND 1 23 Oct 01:47:49 01:52:45 49° 260° (W) 01:57:45 437.568
XW-2F 23 Oct 01:49:02 01:51:40 19° 292° (WNW) 01:54:18 145.980 - 146.000
UWE-3 23 Oct 01:50:43 01:54:28 26° 94° (E) 01:58:06 435.000/436.395/437.385
SO-50 23 Oct 01:50:43 01:53:33 16° 319° (NW) 01:56:23 436.795
NUDT-PHONESAT 23 Oct 01:51:08 01:54:01 22° 290° (WNW) 01:56:53 437.300
LilacSat-2 23 Oct 02:01:28 02:03:05 12° 295° (WNW) 02:04:43 437.200
XW-2D 23 Oct 02:04:56 02:06:19 12° 295° (WNW) 02:07:43 145.860 - 145.880
YUBILEINY 23 Oct 02:07:38 02:14:41 29° 83° (E) 02:21:45 435.215
PCSat 23 Oct 02:13:07 02:18:28 63° 302° (WNW) 02:23:51 145.827
TIGRISAT 23 Oct 02:20:29 02:21:58 11° 61° (ENE) 02:23:27 435.000
RS-15 23 Oct 02:31:58 02:43:43 55° 48° (NE) 02:54:46 29.354- 29.394
AO-73 23 Oct 02:33:35 02:37:32 35° 97° (E) 02:41:24 145.935
HO-68 23 Oct 02:33:52 02:40:56 61° 291° (WNW) 02:47:58 435.675
XW-2A 23 Oct 02:37:49 02:41:07 65° 284° (WNW) 02:44:24 145.665 - 145.685
nSIGHT-1 23 Oct 02:39:34 02:42:36 45° 138° (SE) 02:45:39 .
CUTE-I 23 Oct 02:47:45 02:50:21 14° 301° (WNW) 02:52:57 437.470
CUBEBUG 2 23 Oct 02:55:04 02:59:13 34° 290° (WNW) 03:03:15 437.445
ZACube-1 23 Oct 02:57:16 03:01:37 78° 103° (ESE) 03:05:50 437.345
CUTE 1.7 + AOD 2 23 Oct 03:00:41 03:03:22 17° 294° (WNW) 03:06:02 437.475
SEEDS 23 Oct 03:01:18 03:04:42 25° 291° (WNW) 03:08:06 437.485
AAUSAT CUBESAT 2 23 Oct 03:15:39 03:19:28 37° 288° (WNW) 03:23:16 437.432
FO-29 23 Oct 03:19:51 03:24:53 47° 262° (W) 03:30:18 435.910
ISS 23 Oct 03:19:54 03:23:07 79° 324° (NW) 03:26:22 437.550
NO-84 23 Oct 03:20:11 03:24:03 67° 41° (NE) 03:27:36 435.350 FM
UWE-3 23 Oct 03:27:05 03:30:50 27° 292° (WNW) 03:34:29 435.000/436.395/437.385
Oscar 11 23 Oct 03:28:37 03:32:56 78° 283° (WNW) 03:37:11 .
UNISAT 6 23 Oct 03:39:21 03:44:00 80° 76° (ENE) 03:48:43 437.425
PRISM 23 Oct 03:49:16 03:53:04 41° 72° (ENE) 03:56:53 437.425
TIGRISAT 23 Oct 03:53:17 03:57:56 80° 257° (WSW) 04:02:39 435.000
PCSat 23 Oct 04:01:01 04:02:58 12° 322° (NW) 04:04:56 145.827
YUBILEINY 23 Oct 04:02:21 04:10:51 59° 282° (WNW) 04:19:28 435.215
AO-73 23 Oct 04:10:26 04:13:30 19° 294° (WNW) 04:16:31 145.935
BEESAT 3 23 Oct 04:12:45 04:14:15 12° 108° (ESE) 04:15:43 437.485
EO-88 23 Oct 04:14:03 04:17:24 34° 98° (E) 04:20:41 145.990 - 145.960
DELFI C3 23 Oct 04:14:58 04:18:56 76° 102° (ESE) 04:22:53 145.870
nSIGHT-1 23 Oct 04:16:20 04:19:00 24° 335° (NNW) 04:21:41 .
HO-68 23 Oct 04:24:52 04:27:13 12° 310° (NW) 04:29:34 435.675
QB50P2 23 Oct 04:27:30 04:29:15 12° 63° (ENE) 04:31:00 145.880/145.840
Max Valier Satellite 23 Oct 04:30:43 04:34:24 86° 102° (ESE) 04:38:02 145.860
DUCHIFAT 1 23 Oct 04:37:15 04:38:15 11° 62° (ENE) 04:39:16 145.980
RS-15 23 Oct 04:45:01 04:55:55 46° 251° (WSW) 05:06:18 29.354- 29.394
LO-87 23 Oct 04:54:55 04:56:40 13° 92° (E) 04:58:24 145.935 - 145.965
AIST 2D 23 Oct 04:56:35 05:00:00 58° 75° (ENE) 05:03:26 435.315
ISS 23 Oct 04:57:47 05:00:02 17° 342° (NNW) 05:02:16 437.550
NO-84 23 Oct 04:59:19 05:00:50 12° 239° (WSW) 05:02:19 435.350 FM
PRISM 23 Oct 05:26:16 05:28:31 14° 268° (W) 05:30:45 437.425
AO-85 23 Oct 05:32:01 05:34:16 15° 110° (ESE) 05:36:32 145.980
EO-79 23 Oct 05:34:06 05:38:17 59° 74° (ENE) 05:42:30 145.935-145.965
BEESAT 2 23 Oct 05:38:33 05:42:04 30° 114° (ESE) 05:45:37 435.950
POLYITAN 1 23 Oct 05:39:41 05:43:56 69° 75° (ENE) 05:48:12 437.675
BEESAT 3 23 Oct 05:47:20 05:51:16 58° 304° (NW) 05:55:14 437.485
EO-88 23 Oct 05:48:43 05:50:43 14° 293° (WNW) 05:52:43 145.990 - 145.960
nSIGHT-1 23 Oct 05:55:02 05:56:09 11° 355° (N) 05:57:17 .
ESTCUBE 1 23 Oct 05:58:15 06:02:39 55° 100° (E) 06:07:02 437.505/2401.250
Oscar 19 23 Oct 05:58:36 06:01:20 15° 61° (ENE) 06:04:05 437.125/150
NANOSAT C BR1 23 Oct 06:00:09 06:04:23 78° 256° (WSW) 06:08:40 145.865
QB50P2 23 Oct 06:00:17 06:04:30 61° 259° (W) 06:08:45 145.880/145.840
SPROUT 23 Oct 06:02:36 06:04:54 14° 91° (E) 06:07:10 437.525
BUGSAT 1 23 Oct 06:05:00 06:08:28 26° 68° (ENE) 06:11:57 437.445
YUBILEINY 23 Oct 06:08:13 06:09:50 11° 305° (NW) 06:11:27 435.215
DUCHIFAT 1 23 Oct 06:09:05 06:13:18 70° 258° (WSW) 06:17:33 145.980
LO-87 23 Oct 06:26:52 06:30:12 35° 288° (WNW) 06:33:31 145.935 - 145.965
ISS 23 Oct 06:36:20 06:37:32 12° 2° (N) 06:38:44 437.550
M-CUBED/EXP-1 PRIME 23 Oct 06:37:58 06:40:36 22° 65° (ENE) 06:43:12 437.505
Gurwin Techsat 1B 23 Oct 06:53:05 06:57:45 33° 68° (ENE) 07:02:26 435.225
VELOX 1 23 Oct 07:10:13 07:14:35 54° 101° (E) 07:18:55 145.980
AO-85 23 Oct 07:10:35 07:14:15 41° 307° (NW) 07:18:02 145.980
EO-79 23 Oct 07:13:05 07:14:24 11° 270° (W) 07:15:44 145.935-145.965
BEESAT 2 23 Oct 07:16:27 07:19:47 25° 312° (NW) 07:23:09 435.950
AO-7 23 Oct 07:17:58 07:23:19 19° 50° (NE) 07:28:40 .
nSIGHT-1 23 Oct 07:31:31 07:33:29 15° 16° (NNE) 07:35:27 .
Oscar 19 23 Oct 07:34:54 07:40:02 72° 257° (WSW) 07:45:12 437.125/150
ESTCUBE 1 23 Oct 07:36:31 07:38:59 15° 296° (WNW) 07:41:25 437.505/2401.250
SPROUT 23 Oct 07:36:54 07:41:02 48° 287° (WNW) 07:45:08 437.525
BUGSAT 1 23 Oct 07:40:12 07:43:42 26° 264° (W) 07:47:16 437.445
50 SAT 23 Oct 07:55:01 07:58:14 48° 100° (E) 08:01:25 437.505
DX 1 23 Oct 08:06:10 08:10:28 52° 101° (E) 08:14:43 434.975-435.025
ISS 23 Oct 08:12:20 08:14:56 22° 22° (NNE) 08:17:34 437.550
M-CUBED/EXP-1 PRIME 23 Oct 08:12:45 08:15:01 17° 259° (W) 08:17:15 437.505
ITAMSAT 1 23 Oct 08:16:31 08:20:02 19° 62° (ENE) 08:23:34 435.822/435.867
UKube-1 23 Oct 08:23:21 08:27:35 50° 100° (E) 08:31:46 .
Gurwin Techsat 1B 23 Oct 08:33:00 08:37:38 31° 264° (W) 08:42:19 435.225
SO-50 23 Oct 08:39:39 08:44:10 54° 54° (NE) 08:48:44 436.795
VELOX 1 23 Oct 08:48:06 08:50:33 15° 296° (WNW) 08:52:59 145.980
AO-7 23 Oct 09:06:36 09:14:53 83° 69° (ENE) 09:23:12 .
nSIGHT-1 23 Oct 09:07:07 09:10:16 60° 34° (NE) 09:13:26 .
ITUPSAT 1 23 Oct 09:11:25 09:15:03 21° 94° (E) 09:18:39 437.325
PCSat 23 Oct 09:19:18 09:22:39 16° 43° (NE) 09:26:00 145.827
BEESAT 23 Oct 09:24:16 09:28:25 29° 96° (E) 09:32:33 436.000
DX 1 23 Oct 09:43:45 09:46:11 15° 296° (WNW) 09:48:36 434.975-435.025
MOZHAYETS 4 23 Oct 09:47:21 09:51:52 61° 101° (E) 09:56:21
ISS 23 Oct 09:48:25 09:51:38 60° 220° (SW) 09:54:51 437.550
ITAMSAT 1 23 Oct 09:53:57 09:59:01 56° 259° (W) 10:04:09 435.822/435.867
UKube-1 23 Oct 10:00:44 10:03:09 15° 296° (WNW) 10:05:35 .
CUBESAT XI-V 23 Oct 10:08:01 10:11:33 22° 94° (E) 10:15:05 437.345
SO-50 23 Oct 10:21:15 10:24:12 17° 250° (WSW) 10:27:11 436.795
nSIGHT-1 23 Oct 10:44:31 10:46:12 14° 230° (SW) 10:47:52 .
ITUPSAT 1 23 Oct 10:48:33 10:53:00 39° 290° (WNW) 10:57:24 437.325
CUTE-I 23 Oct 10:49:34 10:52:52 17° 61° (ENE) 10:56:10 437.470
KKS-1 23 Oct 10:51:18 10:54:09 16° 93° (E) 10:56:59 437.445
XW-2F 23 Oct 10:56:05 10:57:54 13° 66° (ENE) 10:59:43 145.980 - 146.000
DOVE 4 23 Oct 10:57:33 11:01:43 76° 76° (ENE) 11:06:08 437.250
PCSat 23 Oct 11:01:21 11:06:47 88° 242° (WSW) 11:12:11 145.827
BEESAT 23 Oct 11:02:02 11:06:06 29° 293° (WNW) 11:10:09 436.000
AO-7 23 Oct 11:02:49 11:08:28 20° 268° (W) 11:14:10 .
LilacSat-2 23 Oct 11:07:23 11:10:16 21° 69° (ENE) 11:13:09 437.200
XW-2D 23 Oct 11:10:01 11:12:55 21° 69° (ENE) 11:15:49 145.860 - 145.880
STARS 23 Oct 11:15:36 11:17:04 11° 91° (E) 11:18:31 437.465
HO-68 23 Oct 11:16:47 11:21:28 19° 55° (NE) 11:26:09 435.675
XW-2B 23 Oct 11:23:09 11:26:26 29° 71° (ENE) 11:29:43 145.730 - 145.750
MOZHAYETS 4 23 Oct 11:26:12 11:28:29 14° 297° (WNW) 11:30:46
CUBESAT XI-V 23 Oct 11:44:49 11:48:59 35° 290° (WNW) 11:53:10 437.345
XW-2C 23 Oct 11:46:06 11:49:49 58° 75° (ENE) 11:53:33 145.795 - 145.815
CUTE 1.7 + AOD 2 23 Oct 12:16:07 12:19:39 27° 70° (ENE) 12:23:13 437.475
CUBEBUG 2 23 Oct 12:16:32 12:19:49 19° 65° (ENE) 12:23:08 437.445
SEEDS 23 Oct 12:17:23 12:20:08 17° 67° (ENE) 12:22:53 437.485
YUBILEINY 23 Oct 12:19:00 12:22:55 13° 58° (ENE) 12:26:49 435.215
KAITUO 1B 23 Oct 12:20:04 12:23:46 69° 258° (WSW) 12:27:28 145.475/437.950
KKS-1 23 Oct 12:26:38 12:30:54 45° 289° (WNW) 12:35:09 437.445
CUTE-I 23 Oct 12:27:05 12:32:21 65° 258° (WSW) 12:37:40 437.470
XW-2F 23 Oct 12:28:04 12:31:38 41° 261° (W) 12:35:12 145.980 - 146.000
NUDT-PHONESAT 23 Oct 12:28:30 12:32:08 55° 260° (W) 12:35:47 437.300
AAUSAT CUBESAT 2 23 Oct 12:32:38 12:33:37 11° 63° (ENE) 12:34:35 437.432
LilacSat-2 23 Oct 12:41:13 12:44:23 25° 264° (W) 12:47:35 437.200
XW-2D 23 Oct 12:43:50 12:46:57 24° 264° (W) 12:50:05 145.860 - 145.880
O/OREOS (USA 219) 23 Oct 12:45:24 12:46:32 11° 97° (E) 12:47:39 437.305
UWE-3 23 Oct 12:46:57 12:50:33 22° 67° (ENE) 12:54:08 435.000/436.395/437.385
PCSat 23 Oct 12:48:15 12:49:19 11° 259° (WSW) 12:50:22 145.827
STARS 23 Oct 12:49:24 12:53:47 63° 286° (WNW) 12:58:09 437.465
XW-2B 23 Oct 12:58:01 13:00:38 18° 266° (W) 13:03:14 145.730 - 145.750
HO-68 23 Oct 13:01:07 13:08:16 86° 254° (WSW) 13:15:31 435.675
XW-2A 23 Oct 13:08:08 13:11:13 32° 73° (ENE) 13:14:17 145.665 - 145.685
AO-73 23 Oct 13:28:09 13:32:01 28° 69° (ENE) 13:35:53 145.935
CUBEBUG 2 23 Oct 13:51:33 13:56:02 46° 262° (W) 14:00:37 437.445
SEEDS 23 Oct 13:51:38 13:55:30 38° 262° (W) 13:59:24 437.485
ZACube-1 23 Oct 13:51:41 13:56:10 56° 74° (ENE) 14:00:38 437.345
CUTE 1.7 + AOD 2 23 Oct 13:52:02 13:55:26 24° 265° (W) 13:58:51 437.475
BEESAT 2 23 Oct 13:56:36 13:59:31 19° 46° (NE) 14:02:23 435.950
STRAND 1 23 Oct 13:58:30 14:03:36 59° 101° (E) 14:08:39 437.568
AO-85 23 Oct 14:01:32 14:04:40 18° 45° (NE) 14:07:57 145.980
BEESAT 3 23 Oct 14:04:17 14:08:13 65° 56° (ENE) 14:12:04 437.485
AAUSAT CUBESAT 2 23 Oct 14:04:27 14:08:30 64° 259° (W) 14:12:34 437.432
YUBILEINY 23 Oct 14:12:45 14:21:32 69° 80° (E) 14:30:19 435.215
O/OREOS (USA 219) 23 Oct 14:20:44 14:25:16 69° 293° (WNW) 14:29:51 437.305
Oscar 11 23 Oct 14:22:22 14:26:40 73° 75° (ENE) 14:30:59 .
UWE-3 23 Oct 14:22:26 14:26:44 37° 263° (W) 14:31:04 435.000/436.395/437.385
FO-29 23 Oct 14:27:47 14:33:46 27° 94° (E) 14:40:05 435.910
XW-2A 23 Oct 14:42:31 14:44:01 12° 267° (W) 14:45:31 145.665 - 145.685
EO-88 23 Oct 14:52:10 14:54:14 15° 67° (ENE) 14:56:18 145.990 - 145.960
HO-68 23 Oct 14:53:22 14:56:55 14° 271° (W) 15:00:29 435.675
DELFI C3 23 Oct 14:59:32 15:03:07 37° 72° (ENE) 15:06:44 145.870
AO-73 23 Oct 15:04:16 15:08:09 27° 265° (W) 15:12:03 145.935
Max Valier Satellite 23 Oct 15:08:48 15:12:09 33° 72° (ENE) 15:15:30 145.860
ZACube-1 23 Oct 15:30:25 15:32:45 14° 269° (W) 15:35:05 437.345
UNISAT 6 23 Oct 15:32:44 15:35:46 17° 92° (E) 15:38:45 437.425
BEESAT 2 23 Oct 15:33:37 15:37:27 44° 243° (WSW) 15:41:13 435.950
STRAND 1 23 Oct 15:38:56 15:42:17 18° 298° (WNW) 15:45:36 437.568
AO-85 23 Oct 15:40:52 15:45:26 65° 241° (WSW) 15:50:21 145.980
TIGRISAT 23 Oct 15:46:05 15:49:39 22° 94° (E) 15:53:07 435.000
YUBILEINY 23 Oct 16:10:52 16:17:29 25° 279° (W) 16:24:07 435.215
FO-29 23 Oct 16:12:04 16:19:00 60° 288° (WNW) 16:26:32 435.910
EO-88 23 Oct 16:24:15 16:27:35 33° 262° (W) 16:30:55 145.990 - 145.960
